Location: Gollag?dem
(17.0207°N, 80.7261°E)
Time: 01:07:03
(UTC+00:00)

Nadezhda 3 Rocket - Pass Details

Date: 03 August 2024
Orbit: 956 x 998 km, 82.9° (Epoch: 12 September)

Event Time Altitude Azimuth Distance (km) Brightness Sun altitude
Rises 13:20:23 0° 6° (N) 3,647 7.2 -3.5°
Reaches altitude 10° 13:22:59 10° 12° (NNE) 2,705 6.4 -4.0°
Maximum altitude 13:28:54 46° 84° (E) 1,280 4.3 -5.4°
Drops below altitude 10° 13:34:51 10° 157° (SSE) 2,729 5.9 -6.7°
Sets 13:37:29 0° 163° (SSE) 3,682 6.7 -7.3°
